,,,PA_Meas_PMT16A,,PR_Meas_QMR101_102,,RH_Meas_QMH101,,SR_Meas_QMS101,,TA_Meas_QMH101,,GenWind,,GenWind,
date,time,status,PA,status,PR,status,RH,status,SR,status,TA,status,DirAvg,status,SpdAvg,
2009-12-11, 00:00:05,VALID,999.902,VALID,0,VALID,92.9593,VALID,0,VALID,22.4543,VALID,43,VALID,0.732422,
2009-12-11, 00:01:05,VALID,999.934,VALID,0,VALID,92.822,VALID,0,VALID,22.4348,VALID,43,VALID,0.4875,
2009-12-11, 00:02:05,VALID,999.917,VALID,0,VALID,92.7075,VALID,0,VALID,22.4153,VALID,43,VALID,0.820313,
2009-12-11, 00:03:05,VALID,999.891,VALID,0,VALID,92.6541,VALID,0,VALID,22.3763,VALID,43,VALID,1.10898,
2009-12-11, 00:04:05,VALID,999.848,VALID,0,VALID,92.7914,VALID,0,VALID,22.3958,VALID,42,VALID,1.24883,
2009-12-11, 00:05:05,VALID,999.839,VALID,0,VALID,92.8525,VALID,0,VALID,22.3958,VALID,49,VALID,1.47148,
2009-12-11, 00:06:05,VALID,999.805,VALID,0,VALID,92.8525,VALID,0,VALID,22.4153,VALID,53,VALID,1.16523,
2009-12-11, 00:07:05,VALID,999.755,VALID,0,VALID,92.738,VALID,0,VALID,22.4136,VALID,52,VALID,0.770703,
2009-12-11, 00:08:05,VALID,999.77,VALID,0,VALID,92.616,VALID,0,VALID,22.4153,VALID,52,VALID,0,
2009-12-11, 00:09:05,VALID,999.736,VALID,0,VALID,92.677,VALID,0,VALID,22.4136,VALID,307,VALID,0.003125,
2009-12-11, 00:10:05,VALID,999.742,VALID,0,VALID,92.8296,VALID,0,VALID,22.4933,VALID,306,VALID,0,
2009-12-11, 00:11:05,VALID,999.704,VALID,0,VALID,92.8143,VALID,0,VALID,22.5128,VALID,306,VALID,0,
2009-12-11, 00:12:05,VALID,999.704,VALID,0,VALID,92.7991,VALID,0,VALID,22.4916,VALID,306,VALID,0,
2009-12-11, 00:13:05,VALID,999.705,VALID,0,VALID,92.8143,VALID,0,VALID,22.5128,VALID,306,VALID,0,
2009-12-11, 00:14:05,VALID,999.709,VALID,0,VALID,92.6999,VALID,0,VALID,22.4933,VALID,306,VALID,0,
2009-12-11, 00:15:05,VALID,999.722,VALID,0,VALID,92.6465,VALID,0,VALID,22.4526,VALID,306,VALID,0,
2009-12-11, 00:16:05,VALID,999.721,VALID,0,VALID,92.5931,VALID,0,VALID,22.4526,VALID,306,VALID,0,
2009-12-11, 00:17:05,VALID,999.713,VALID,0,VALID,92.6312,VALID,0,VALID,22.4331,VALID,306,VALID,0,
2009-12-11, 00:18:05,VALID,999.709,VALID,0,VALID,92.6999,VALID,0,VALID,22.4543,VALID,306,VALID,0,
2009-12-11, 00:19:05,VALID,999.699,VALID,0,VALID,92.7075,VALID,0,VALID,22.4543,VALID,306,VALID,0,
2009-12-11, 00:20:05,VALID,999.647,VALID,0,VALID,92.7609,VALID,0,VALID,22.4526,VALID,306,VALID,0,
2009-12-11, 00:21:05,VALID,999.642,VALID,0,VALID,92.822,VALID,0,VALID,22.4933,VALID,306,VALID,0,
2009-12-11, 00:22:05,VALID,999.624,VALID,0,VALID,92.8525,VALID,0,VALID,22.4933,VALID,306,VALID,0,
2009-12-11, 00:23:05,VALID,999.624,VALID,0,VALID,92.8448,VALID,0,VALID,22.5128,VALID,306,VALID,0,
2009-12-11, 00:24:05,VALID,999.608,VALID,0,VALID,92.8067,VALID,0,VALID,22.5128,VALID,306,VALID,0,
2009-12-11, 00:25:05,VALID,999.619,VALID,0,VALID,92.7609,VALID,0,VALID,22.5128,VALID,306,VALID,0,
2009-12-11, 00:26:05,VALID,999.615,VALID,0,VALID,92.7151,VALID,0,VALID,22.4526,VALID,306,VALID,0,
2009-12-11, 00:27:05,VALID,999.644,VALID,0,VALID,92.6388,VALID,0,VALID,22.4526,VALID,306,VALID,0,
2009-12-11, 00:28:05,VALID,999.633,VALID,0,VALID,92.5778,VALID,0,VALID,22.4348,VALID,306,VALID,0,
2009-12-11, 00:29:05,VALID,999.642,VALID,0,VALID,92.7075,VALID,0,VALID,22.4543,VALID,306,VALID,0,
2009-12-11, 00:30:05,VALID,999.649,VALID,0,VALID,92.7533,VALID,0,VALID,22.4543,VALID,306,VALID,0,
2009-12-11, 00:31:05,VALID,999.653,VALID,0,VALID,92.8677,VALID,0,VALID,22.4933,VALID,306,VALID,0,
2009-12-11, 00:32:05,VALID,999.67,VALID,0,VALID,92.883,VALID,0,VALID,22.5128,VALID,306,VALID,0,
2009-12-11, 00:33:05,VALID,999.605,VALID,0,VALID,92.8983,VALID,0,VALID,22.5111,VALID,306,VALID,0,
2009-12-11, 00:34:05,VALID,999.598,VALID,0,VALID,92.9745,VALID,0,VALID,22.5306,VALID,306,VALID,0,
2009-12-11, 00:35:05,VALID,999.599,VALID,0,VALID,93.0814,VALID,0,VALID,22.5892,VALID,306,VALID,0,
2009-12-11, 00:36:05,VALID,999.562,VALID,0,VALID,93.0356,VALID,0,VALID,22.6494,VALID,307,VALID,0.832422,
2009-12-11, 00:37:05,VALID,999.553,VALID,0,VALID,93.0127,VALID,0,VALID,22.6689,VALID,307,VALID,0.580859,
2009-12-11, 00:38:05,VALID,999.543,VALID,0,VALID,92.9364,VALID,0,VALID,22.6477,VALID,307,VALID,0.228516,
2009-12-11, 00:39:05,VALID,999.538,VALID,0,VALID,92.8754,VALID,0,VALID,22.6689,VALID,307,VALID,0,
2009-12-11, 00:40:05,VALID,999.499,VALID,0,VALID,92.8372,VALID,0,VALID,22.6282,VALID,307,VALID,0,
2009-12-11, 00:41:05,VALID,999.499,VALID,0,VALID,92.8906,VALID,0,VALID,22.6689,VALID,307,VALID,0,
2009-12-11, 00:42:05,VALID,999.472,VALID,0,VALID,92.8983,VALID,0,VALID,22.6672,VALID,307,VALID,0,
2009-12-11, 00:43:05,VALID,999.476,VALID,0,VALID,92.9135,VALID,0,VALID,22.6867,VALID,83,VALID,0.663672,
2009-12-11, 00:44:05,VALID,999.463,VALID,0,VALID,92.8296,VALID,0,VALID,22.7079,VALID,84,VALID,0.625781,
2009-12-11, 00:45:05,VALID,999.431,VALID,0,VALID,92.5778,VALID,0,VALID,22.6477,VALID,84,VALID,0.468359,
2009-12-11, 00:46:05,VALID,999.419,VALID,0,VALID,92.3337,VALID,0,VALID,22.6299,VALID,69,VALID,0.597266,
2009-12-11, 00:47:05,VALID,999.405,VALID,0,VALID,92.2574,VALID,0,VALID,22.5696,VALID,72,VALID,0.649609,
2009-12-11, 00:48:05,VALID,999.38,VALID,0,VALID,92.1887,VALID,0,VALID,22.5306,VALID,75,VALID,0.299609,
2009-12-11, 00:49:05,VALID,999.368,VALID,0,VALID,92.1506,VALID,0,VALID,22.4916,VALID,75,VALID,0.204297,
2009-12-11, 00:50:05,VALID,999.353,VALID,0,VALID,92.2192,VALID,0,VALID,22.4526,VALID,54,VALID,0.0390625,
2009-12-11, 00:51:05,VALID,999.361,VALID,0,VALID,92.1506,VALID,0,VALID,22.4348,VALID,40,VALID,0.515234,
2009-12-11, 00:52:05,VALID,999.343,VALID,0,VALID,92.3413,VALID,0,VALID,22.3746,VALID,40,VALID,0.526172,
2009-12-11, 00:53:05,VALID,999.311,VALID,0,VALID,92.4176,VALID,0,VALID,22.3958,VALID,47,VALID,0.612891,
2009-12-11, 00:54:05,VALID,999.284,VALID,0,VALID,92.41,VALID,0,VALID,22.3958,VALID,60,VALID,0.467969,
2009-12-11, 00:55:05,VALID,999.284,VALID,0,VALID,92.4863,VALID,0,VALID,22.3763,VALID,68,VALID,0.350391,
2009-12-11, 00:56:05,VALID,999.229,VALID,0,VALID,92.3871,VALID,0,VALID,22.3568,VALID,66,VALID,0.405078,
2009-12-11, 00:57:05,VALID,999.208,VALID,0,VALID,92.3566,VALID,0,VALID,22.3161,VALID,30,VALID,0.7625,
2009-12-11, 00:58:05,VALID,999.176,VALID,0,VALID,92.3947,VALID,0,VALID,22.3161,VALID,29,VALID,0.966016,
2009-12-11, 00:59:05,VALID,999.192,VALID,0,VALID,92.3031,VALID,0,VALID,22.2771,VALID,29,VALID,1.08438,
2009-12-11, 01:00:05,VALID,999.152,VALID,0,VALID,92.12,VALID,0,VALID,22.2364,VALID,29,VALID,0.901563,
2009-12-11, 01:01:05,VALID,999.122,VALID,0,VALID,92.1506,VALID,0,VALID,22.199,VALID,29,VALID,0.66875,
2009-12-11, 01:02:05,VALID,999.166,VALID,0,VALID,92.1658,VALID,0,VALID,22.1795,VALID,29,VALID,0,
2009-12-11, 01:03:05,VALID,999.111,VALID,0,VALID,92.3566,VALID,0,VALID,22.1389,VALID,29,VALID,0,
2009-12-11, 01:04:05,VALID,999.101,VALID,0,VALID,92.6694,VALID,0,VALID,22.199,VALID,29,VALID,0,
2009-12-11, 01:05:05,VALID,999.097,VALID,0,VALID,92.7228,VALID,0,VALID,22.2186,VALID,29,VALID,0,
2009-12-11, 01:06:05,VALID,999.054,VALID,0,VALID,92.7228,VALID,0,VALID,22.1974,VALID,29,VALID,0,
2009-12-11, 01:07:05,VALID,999.043,VALID,0,VALID,92.6083,VALID,0,VALID,22.2186,VALID,30,VALID,0,
2009-12-11, 01:08:05,VALID,999.016,VALID,0,VALID,92.4634,VALID,0,VALID,22.1795,VALID,30,VALID,0,
2009-12-11, 01:09:05,VALID,999.024,VALID,0,VALID,92.3566,VALID,0,VALID,22.1015,VALID,30,VALID,0,
2009-12-11, 01:10:05,VALID,998.989,VALID,0,VALID,92.3947,VALID,0,VALID,22.1015,VALID,30,VALID,0,
2009-12-11, 01:11:05,VALID,998.986,VALID,0,VALID,92.5702,VALID,0,VALID,22.082,VALID,30,VALID,0,
2009-12-11, 01:12:05,VALID,999.004,VALID,0,VALID,92.6694,VALID,0,VALID,22.1015,VALID,28,VALID,0,
2009-12-11, 01:13:05,VALID,998.976,VALID,0,VALID,92.7151,VALID,0,VALID,22.1015,VALID,28,VALID,0,
2009-12-11, 01:14:05,VALID,998.989,VALID,0,VALID,92.7762,VALID,0,VALID,22.1015,VALID,28,VALID,0,
2009-12-11, 01:15:05,VALID,998.997,VALID,0,VALID,92.8601,VALID,0,VALID,22.121,VALID,28,VALID,0,
2009-12-11, 01:16:05,VALID,999.006,VALID,0,VALID,92.8067,VALID,0,VALID,22.082,VALID,28,VALID,0,
2009-12-11, 01:17:05,VALID,998.994,VALID,0,VALID,92.8372,VALID,0,VALID,22.0625,VALID,28,VALID,0,
2009-12-11, 01:18:05,VALID,999.004,VALID,0,VALID,92.7838,VALID,0,VALID,22.043,VALID,28,VALID,0,
2009-12-11, 01:19:05,VALID,998.978,VALID,0,VALID,92.6846,VALID,0,VALID,21.9845,VALID,28,VALID,0,
2009-12-11, 01:20:05,VALID,998.969,VALID,0,VALID,92.677,VALID,0.112286,VALID,21.9455,VALID,28,VALID,0,
2009-12-11, 01:21:05,VALID,998.945,VALID,0,VALID,92.7609,VALID,0,VALID,21.926,VALID,28,VALID,0,
2009-12-11, 01:22:05,VALID,998.951,VALID,0,VALID,93.0508,VALID,0,VALID,21.9438,VALID,28,VALID,0,
2009-12-11, 01:23:05,VALID,998.934,VALID,0,VALID,93.2187,VALID,0,VALID,22.0235,VALID,22,VALID,0.860156,
2009-12-11, 01:24:05,VALID,998.898,VALID,0,VALID,93.2645,VALID,0,VALID,22.0625,VALID,19,VALID,0.595312,
2009-12-11, 01:25:05,VALID,998.871,VALID,0,VALID,93.1271,VALID,0,VALID,22.0218,VALID,19,VALID,0,
2009-12-11, 01:26:05,VALID,998.829,VALID,0,VALID,93.1348,VALID,0.112286,VALID,22.043,VALID,25,VALID,0,
2009-12-11, 01:27:05,VALID,998.804,VALID,0,VALID,93.0051,VALID,0,VALID,22.0252,VALID,28,VALID,0,
2009-12-11, 01:28:05,VALID,998.793,VALID,0,VALID,92.8372,VALID,0,VALID,21.9667,VALID,28,VALID,0,
2009-12-11, 01:29:05,VALID,998.816,VALID,0,VALID,92.7457,VALID,0,VALID,21.9277,VALID,28,VALID,0,
2009-12-11, 01:30:05,VALID,998.789,VALID,0,VALID,92.883,VALID,0,VALID,21.9472,VALID,28,VALID,0,
2009-12-11, 01:31:05,VALID,998.775,VALID,0,VALID,92.9669,VALID,0,VALID,21.9472,VALID,28,VALID,0,
2009-12-11, 01:32:05,VALID,998.764,VALID,0,VALID,93.0966,VALID,0,VALID,21.9667,VALID,28,VALID,0,
2009-12-11, 01:33:05,VALID,998.774,VALID,0,VALID,93.1195,VALID,0,VALID,21.9862,VALID,28,VALID,0,
2009-12-11, 01:34:05,VALID,998.761,VALID,0,VALID,93.0508,VALID,0,VALID,21.965,VALID,28,VALID,0,
2009-12-11, 01:35:05,VALID,998.767,VALID,0,VALID,93.0661,VALID,0,VALID,21.9472,VALID,28,VALID,0,
2009-12-11, 01:36:05,VALID,998.731,VALID,0,VALID,93.1119,VALID,0,VALID,21.9277,VALID,29,VALID,0,
2009-12-11, 01:37:05,VALID,998.703,VALID,0,VALID,93.1348,VALID,0,VALID,21.9472,VALID,40,VALID,0.724219,
2009-12-11, 01:38:05,VALID,998.652,VALID,0,VALID,93.1424,VALID,0,VALID,21.926,VALID,48,VALID,0.678516,
2009-12-11, 01:39:05,VALID,998.616,VALID,0,VALID,93.1119,VALID,0,VALID,21.9472,VALID,51,VALID,0.489844,
2009-12-11, 01:40:05,VALID,998.637,VALID,0,VALID,92.9898,VALID,0,VALID,21.887,VALID,51,VALID,0.551953,
2009-12-11, 01:41:05,VALID,998.626,VALID,0,VALID,92.9669,VALID,0,VALID,21.887,VALID,51,VALID,0.442969,
2009-12-11, 01:42:05,VALID,998.634,VALID,0,VALID,92.9593,VALID,0,VALID,21.8887,VALID,51,VALID,0.403516,
2009-12-11, 01:43:05,VALID,998.624,VALID,0,VALID,93.0432,VALID,0,VALID,21.8887,VALID,51,VALID,0.382031,
2009-12-11, 01:44:05,VALID,998.635,VALID,0,VALID,93.1119,VALID,0,VALID,21.9277,VALID,51,VALID,0.420703,
2009-12-11, 01:45:05,VALID,998.632,VALID,0,VALID,93.1195,VALID,0,VALID,21.9472,VALID,51,VALID,0.302734,
2009-12-11, 01:46:05,VALID,998.615,VALID,0,VALID,93.0203,VALID,0,VALID,21.9277,VALID,51,VALID,0,
2009-12-11, 01:47:05,VALID,998.644,VALID,0,VALID,93.0432,VALID,0,VALID,21.9277,VALID,51,VALID,0,
2009-12-11, 01:48:05,VALID,998.647,VALID,0,VALID,93.1348,VALID,0,VALID,21.9472,VALID,51,VALID,0,
2009-12-11, 01:49:05,VALID,998.642,VALID,0,VALID,93.1958,VALID,0,VALID,21.965,VALID,51,VALID,0,
2009-12-11, 01:50:05,VALID,998.628,VALID,0,VALID,93.1958,VALID,0,VALID,22.0057,VALID,51,VALID,0,
2009-12-11, 01:51:05,VALID,998.648,VALID,0,VALID,93.234,VALID,0,VALID,22.0252,VALID,51,VALID,0,
2009-12-11, 01:52:05,VALID,998.634,VALID,0,VALID,93.295,VALID,0,VALID,22.0235,VALID,51,VALID,0.679297,
2009-12-11, 01:53:05,VALID,998.602,VALID,0,VALID,93.2416,VALID,0,VALID,22.0642,VALID,51,VALID,0.531641,
2009-12-11, 01:54:05,VALID,998.584,VALID,0,VALID,93.2111,VALID,0,VALID,22.0642,VALID,51,VALID,0.314453,
2009-12-11, 01:55:05,VALID,998.6,VALID,0,VALID,93.1805,VALID,0,VALID,22.0837,VALID,51,VALID,0.316016,
2009-12-11, 01:56:04,VALID,998.598,VALID,0,VALID,93.0966,VALID,0,VALID,22.0625,VALID,51,VALID,0.160938,
2009-12-11, 01:57:04,VALID,998.598,VALID,0,VALID,93.1424,VALID,0,VALID,22.043,VALID,51,VALID,0.441406,
2009-12-11, 01:58:04,VALID,998.588,VALID,0,VALID,93.089,VALID,0,VALID,22.0625,VALID,51,VALID,0.264844,
2009-12-11, 01:59:04,VALID,998.578,VALID,0,VALID,93.089,VALID,0,VALID,22.0642,VALID,51,VALID,0.563281,
2009-12-11, 02:00:04,VALID,998.576,VALID,0,VALID,93.234,VALID,0,VALID,22.082,VALID,51,VALID,0.741406,
2009-12-11, 02:01:04,VALID,998.563,VALID,0,VALID,93.2111,VALID,0,VALID,22.1405,VALID,51,VALID,0.768359,
2009-12-11, 02:02:04,VALID,998.573,VALID,0,VALID,93.1043,VALID,0,VALID,22.1405,VALID,51,VALID,0.533594,
2009-12-11, 02:03:04,VALID,998.596,VALID,0,VALID,92.8677,VALID,0,VALID,22.1422,VALID,51,VALID,0.401953,
2009-12-11, 02:04:04,VALID,998.609,VALID,0,VALID,92.6312,VALID,0,VALID,22.082,VALID,47,VALID,0.547266,
2009-12-11, 02:05:04,VALID,998.602,VALID,0,VALID,92.5702,VALID,0,VALID,22.0625,VALID,45,VALID,0.6875,
2009-12-11, 02:06:04,VALID,998.591,VALID,0,VALID,92.5778,VALID,0,VALID,22.043,VALID,45,VALID,0.607422,
2009-12-11, 02:07:04,VALID,998.594,VALID,0,VALID,92.7533,VALID,0,VALID,22.0625,VALID,45,VALID,0.633203,
2009-12-11, 02:08:04,VALID,998.548,VALID,0,VALID,92.9135,VALID,0,VALID,22.0837,VALID,44,VALID,0.892187,
2009-12-11, 02:09:04,VALID,998.538,VALID,0,VALID,92.8525,VALID,0,VALID,22.1032,VALID,45,VALID,0.878125,
2009-12-11, 02:10:04,VALID,998.541,VALID,0,VALID,92.8601,VALID,0,VALID,22.0837,VALID,45,VALID,1.04453,
2009-12-11, 02:11:04,VALID,998.543,VALID,0,VALID,92.8525,VALID,0,VALID,22.0625,VALID,44,VALID,1.01602,
2009-12-11, 02:12:04,VALID,998.528,VALID,0,VALID,92.6999,VALID,0,VALID,22.004,VALID,44,VALID,0.930859,
2009-12-11, 02:13:04,VALID,998.522,VALID,0,VALID,92.5854,VALID,0,VALID,21.965,VALID,44,VALID,0.898047,
2009-12-11, 02:14:04,VALID,998.539,VALID,0,VALID,92.616,VALID,0,VALID,21.9455,VALID,44,VALID,0.655078,
2009-12-11, 02:15:04,VALID,998.533,VALID,0,VALID,92.5626,VALID,0,VALID,21.9065,VALID,44,VALID,0.466406,
2009-12-11, 02:16:04,VALID,998.557,VALID,0,VALID,92.5244,VALID,0,VALID,21.848,VALID,44,VALID,0.28125,
2009-12-11, 02:17:04,VALID,998.518,VALID,0,VALID,92.5702,VALID,0,VALID,21.8301,VALID,44,VALID,0.178906,
2009-12-11, 02:18:04,VALID,998.555,VALID,0,VALID,92.6999,VALID,0,VALID,21.809,VALID,44,VALID,0.0753906,
2009-12-11, 02:19:04,VALID,998.541,VALID,0,VALID,92.7304,VALID,0,VALID,21.8106,VALID,44,VALID,0,
2009-12-11, 02:20:04,VALID,998.578,VALID,0,VALID,92.7457,VALID,0,VALID,21.7911,VALID,44,VALID,0,
2009-12-11, 02:21:04,VALID,998.571,VALID,0,VALID,92.8906,VALID,0,VALID,21.7911,VALID,44,VALID,0.303906,
2009-12-11, 02:22:04,VALID,998.577,VALID,0,VALID,93.0432,VALID,0,VALID,21.809,VALID,36,VALID,0.622266,
2009-12-11, 02:23:04,VALID,998.6,VALID,0,VALID,93.15,VALID,0,VALID,21.8692,VALID,36,VALID,0.526563,
2009-12-11, 02:24:04,VALID,998.623,VALID,0,VALID,93.2263,VALID,0,VALID,21.9082,VALID,59,VALID,0.551562,
2009-12-11, 02:25:04,VALID,998.605,VALID,0,VALID,93.1043,VALID,0,VALID,21.9082,VALID,77,VALID,0.260938,
2009-12-11, 02:26:04,VALID,998.613,VALID,0,VALID,93.0585,VALID,0,VALID,21.8675,VALID,77,VALID,0.0261719,
2009-12-11, 02:27:04,VALID,998.608,VALID,0,VALID,93.0203,VALID,0,VALID,21.8496,VALID,77,VALID,0,
2009-12-11, 02:28:04,VALID,998.607,VALID,0,VALID,93.0661,VALID,0,VALID,21.8496,VALID,77,VALID,0.217969,
2009-12-11, 02:29:04,VALID,998.565,VALID,0,VALID,93.1271,VALID,0,VALID,21.8496,VALID,65,VALID,0.402344,
2009-12-11, 02:30:04,VALID,998.583,VALID,0,VALID,93.3408,VALID,0,VALID,21.9082,VALID,54,VALID,0.487109,
2009-12-11, 02:31:04,VALID,998.57,VALID,0,VALID,93.3026,VALID,0,VALID,21.9065,VALID,52,VALID,0.342578,
2009-12-11, 02:32:04,VALID,998.571,VALID,0,VALID,93.4323,VALID,0,VALID,21.965,VALID,52,VALID,0.0425781,
2009-12-11, 02:33:04,VALID,998.561,VALID,0,VALID,93.3408,VALID,0,VALID,21.965,VALID,52,VALID,0,
2009-12-11, 02:34:04,VALID,998.571,VALID,0,VALID,93.2187,VALID,0,VALID,21.9667,VALID,43,VALID,0.101953,
2009-12-11, 02:35:04,VALID,998.579,VALID,0,VALID,93.0661,VALID,0,VALID,21.9065,VALID,24,VALID,0.444531,
2009-12-11, 02:36:04,VALID,998.563,VALID,0,VALID,93.028,VALID,0,VALID,21.848,VALID,24,VALID,0.0414063,
2009-12-11, 02:37:04,VALID,998.56,VALID,0,VALID,92.9898,VALID,0,VALID,21.8496,VALID,24,VALID,0,
2009-12-11, 02:38:04,VALID,998.535,VALID,0,VALID,92.9593,VALID,0,VALID,21.8301,VALID,24,VALID,0,
2009-12-11, 02:39:04,VALID,998.555,VALID,0,VALID,93.0661,VALID,0,VALID,21.809,VALID,24,VALID,0,
2009-12-11, 02:40:04,VALID,998.521,VALID,0,VALID,93.2263,VALID,0,VALID,21.8887,VALID,24,VALID,0,
2009-12-11, 02:41:04,VALID,998.529,VALID,0,VALID,93.1119,VALID,0,VALID,21.8692,VALID,24,VALID,0.0558594,
2009-12-11, 02:42:04,VALID,998.508,VALID,0,VALID,93.1195,VALID,0,VALID,21.848,VALID,24,VALID,0.0832031,
2009-12-11, 02:43:04,VALID,998.53,VALID,0,VALID,92.9745,VALID,0,VALID,21.8285,VALID,24,VALID,0.207813,
2009-12-11, 02:44:04,VALID,998.512,VALID,0,VALID,93.0127,VALID,0.112286,VALID,21.7683,VALID,24,VALID,0.233984,
2009-12-11, 02:45:04,VALID,998.508,VALID,0,VALID,93.1348,VALID,0,VALID,21.7683,VALID,24,VALID,0,
2009-12-11, 02:46:04,VALID,998.505,VALID,0,VALID,93.2568,VALID,0.112286,VALID,21.8268,VALID,24,VALID,0,
2009-12-11, 02:47:04,VALID,998.501,VALID,0,VALID,93.3637,VALID,0,VALID,21.887,VALID,24,VALID,0,
2009-12-11, 02:48:04,VALID,998.46,VALID,0,VALID,93.3026,VALID,0,VALID,21.8675,VALID,24,VALID,0,
2009-12-11, 02:49:04,VALID,998.452,VALID,0,VALID,93.3026,VALID,0,VALID,21.8463,VALID,24,VALID,0,
2009-12-11, 02:50:04,VALID,998.422,VALID,0,VALID,93.295,VALID,0,VALID,21.848,VALID,24,VALID,0,
2009-12-11, 02:51:04,VALID,998.431,VALID,0,VALID,93.2568,VALID,0.112286,VALID,21.8285,VALID,24,VALID,0,
2009-12-11, 02:52:04,VALID,998.432,VALID,0,VALID,93.2568,VALID,0,VALID,21.8285,VALID,24,VALID,0,
2009-12-11, 02:53:04,VALID,998.471,VALID,0,VALID,93.2568,VALID,0,VALID,21.8285,VALID,24,VALID,0,
2009-12-11, 02:54:04,VALID,998.467,VALID,0,VALID,93.2492,VALID,0,VALID,21.7895,VALID,24,VALID,0,
2009-12-11, 02:55:04,VALID,998.468,VALID,0,VALID,93.3179,VALID,0.112286,VALID,21.7895,VALID,24,VALID,0,
2009-12-11, 02:56:04,VALID,998.533,VALID,0,VALID,93.4476,VALID,0.112286,VALID,21.848,VALID,24,VALID,0,
2009-12-11, 02:57:04,VALID,998.532,VALID,0,VALID,93.4628,VALID,0,VALID,21.8692,VALID,24,VALID,0,
2009-12-11, 02:58:04,VALID,998.555,VALID,0,VALID,93.4857,VALID,0,VALID,21.887,VALID,24,VALID,0,
2009-12-11, 02:59:04,VALID,998.584,VALID,0,VALID,93.5086,VALID,0,VALID,21.9472,VALID,24,VALID,0,
2009-12-11, 03:00:04,VALID,998.625,VALID,0,VALID,93.5468,VALID,0,VALID,21.9667,VALID,24,VALID,0,
2009-12-11, 03:01:04,VALID,998.619,VALID,0,VALID,93.5468,VALID,0,VALID,21.9862,VALID,24,VALID,0,
2009-12-11, 03:02:04,VALID,998.651,VALID,0,VALID,93.3866,VALID,0,VALID,21.9277,VALID,24,VALID,0,
2009-12-11, 03:03:04,VALID,998.666,VALID,0,VALID,93.356,VALID,0,VALID,21.8887,VALID,24,VALID,0,
2009-12-11, 03:04:04,VALID,998.692,VALID,0,VALID,93.3179,VALID,0,VALID,21.8285,VALID,24,VALID,0,
2009-12-11, 03:05:04,VALID,998.667,VALID,0,VALID,93.4018,VALID,0,VALID,21.8496,VALID,24,VALID,0,
2009-12-11, 03:06:04,VALID,998.681,VALID,0,VALID,93.4171,VALID,0,VALID,21.848,VALID,24,VALID,0,
2009-12-11, 03:07:04,VALID,998.691,VALID,0,VALID,93.3713,VALID,0,VALID,21.8496,VALID,24,VALID,0,
2009-12-11, 03:08:04,VALID,998.688,VALID,0,VALID,93.2874,VALID,0,VALID,21.7911,VALID,24,VALID,0,
2009-12-11, 03:09:04,VALID,998.713,VALID,0,VALID,93.3026,VALID,0,VALID,21.7911,VALID,24,VALID,0,
2009-12-11, 03:10:04,VALID,998.724,VALID,0,VALID,93.3103,VALID,0,VALID,21.731,VALID,25,VALID,0.00351562,
2009-12-11, 03:11:04,VALID,998.724,VALID,0,VALID,93.5315,VALID,0,VALID,21.7911,VALID,25,VALID,0.0832031,
2009-12-11, 03:12:04,VALID,998.726,VALID,0,VALID,93.4934,VALID,0,VALID,21.8106,VALID,25,VALID,0,
2009-12-11, 03:13:04,VALID,998.728,VALID,0,VALID,93.501,VALID,0,VALID,21.8106,VALID,25,VALID,0,
2009-12-11, 03:14:04,VALID,998.718,VALID,0,VALID,93.5163,VALID,0,VALID,21.8106,VALID,25,VALID,0,
2009-12-11, 03:15:04,VALID,998.717,VALID,0,VALID,93.5926,VALID,0,VALID,21.8496,VALID,25,VALID,0,
2009-12-11, 03:16:04,VALID,998.719,VALID,0,VALID,93.5926,VALID,0,VALID,21.8887,VALID,25,VALID,0,
2009-12-11, 03:17:04,VALID,998.721,VALID,0,VALID,93.5773,VALID,0,VALID,21.8887,VALID,25,VALID,0,
2009-12-11, 03:18:04,VALID,998.724,VALID,0,VALID,93.562,VALID,0,VALID,21.8887,VALID,25,VALID,0,
2009-12-11, 03:19:04,VALID,998.699,VALID,0,VALID,93.5391,VALID,0,VALID,21.8692,VALID,25,VALID,0,
2009-12-11, 03:20:04,VALID,998.722,VALID,0,VALID,93.5163,VALID,0,VALID,21.8692,VALID,25,VALID,0,
2009-12-11, 03:21:04,VALID,998.733,VALID,0,VALID,93.4628,VALID,0,VALID,21.8301,VALID,25,VALID,0,
2009-12-11, 03:22:04,VALID,998.713,VALID,0,VALID,93.4781,VALID,0,VALID,21.8106,VALID,25,VALID,0,
2009-12-11, 03:23:04,VALID,998.716,VALID,0,VALID,93.4934,VALID,0,VALID,21.7911,VALID,25,VALID,0,
2009-12-11, 03:24:04,VALID,998.707,VALID,0,VALID,93.501,VALID,0,VALID,21.77,VALID,25,VALID,0,
2009-12-11, 03:25:04,VALID,998.689,VALID,0,VALID,93.5773,VALID,0,VALID,21.8106,VALID,25,VALID,0,
2009-12-11, 03:26:04,VALID,998.709,VALID,0,VALID,93.6383,VALID,0,VALID,21.8106,VALID,25,VALID,0.0574219,
2009-12-11, 03:27:04,VALID,998.718,VALID,0,VALID,93.7146,VALID,0,VALID,21.8496,VALID,31,VALID,0.226953,
2009-12-11, 03:28:04,VALID,998.708,VALID,0,VALID,93.5315,VALID,0,VALID,21.8106,VALID,31,VALID,0,
2009-12-11, 03:29:04,VALID,998.726,VALID,0,VALID,93.5468,VALID,0,VALID,21.7115,VALID,360,VALID,0,
2009-12-11, 03:30:04,VALID,998.727,VALID,0,VALID,93.5239,VALID,0,VALID,21.7115,VALID,353,VALID,0,
2009-12-11, 03:31:04,VALID,998.74,VALID,0,VALID,93.562,VALID,0,VALID,21.6936,VALID,353,VALID,0,
2009-12-11, 03:32:04,VALID,998.762,VALID,0,VALID,93.6765,VALID,0,VALID,21.7115,VALID,17,VALID,0,
2009-12-11, 03:33:04,VALID,998.766,VALID,0,VALID,93.646,VALID,0,VALID,21.7326,VALID,17,VALID,0,
2009-12-11, 03:34:04,VALID,998.77,VALID,0,VALID,93.5697,VALID,0,VALID,21.692,VALID,17,VALID,0,
2009-12-11, 03:35:04,VALID,998.815,VALID,0,VALID,93.4323,VALID,0,VALID,21.6156,VALID,17,VALID,0,
2009-12-11, 03:36:04,VALID,998.817,VALID,0,VALID,93.356,VALID,0,VALID,21.5376,VALID,17,VALID,0,
2009-12-11, 03:37:04,VALID,998.832,VALID,0,VALID,93.4476,VALID,0,VALID,21.5181,VALID,17,VALID,0,
2009-12-11, 03:38:04,VALID,998.826,VALID,0,VALID,93.5086,VALID,0,VALID,21.5376,VALID,17,VALID,0,
2009-12-11, 03:39:04,VALID,998.82,VALID,0,VALID,93.5773,VALID,0,VALID,21.5571,VALID,17,VALID,0,
2009-12-11, 03:40:04,VALID,998.859,VALID,0,VALID,93.4705,VALID,0,VALID,21.4791,VALID,15,VALID,0,
2009-12-11, 03:41:04,VALID,998.854,VALID,0,VALID,93.4781,VALID,0,VALID,21.4791,VALID,15,VALID,0,
2009-12-11, 03:42:04,VALID,998.875,VALID,0,VALID,93.6154,VALID,0,VALID,21.4791,VALID,15,VALID,0,
2009-12-11, 03:43:04,VALID,998.877,VALID,0,VALID,93.7833,VALID,0,VALID,21.5766,VALID,15,VALID,0,
2009-12-11, 03:44:04,VALID,998.89,VALID,0,VALID,93.8214,VALID,0,VALID,21.6335,VALID,15,VALID,0,
2009-12-11, 03:45:04,VALID,998.906,VALID,0,VALID,93.7146,VALID,0,VALID,21.6546,VALID,15,VALID,0,
2009-12-11, 03:46:04,VALID,998.927,VALID,0,VALID,93.646,VALID,0,VALID,21.5945,VALID,20,VALID,0,
2009-12-11, 03:47:04,VALID,998.918,VALID,0,VALID,93.6536,VALID,0,VALID,21.5766,VALID,20,VALID,0,
2009-12-11, 03:48:04,VALID,998.923,VALID,0,VALID,93.6231,VALID,0,VALID,21.5165,VALID,20,VALID,0,
2009-12-11, 03:49:04,VALID,998.975,VALID,0,VALID,93.6917,VALID,0,VALID,21.5766,VALID,20,VALID,0,
2009-12-11, 03:50:04,VALID,998.984,VALID,0,VALID,93.768,VALID,0,VALID,21.5961,VALID,30,VALID,0,
2009-12-11, 03:51:04,VALID,998.987,VALID,0,VALID,93.7223,VALID,0,VALID,21.6351,VALID,37,VALID,0,
2009-12-11, 03:52:04,VALID,999.018,VALID,0,VALID,93.5773,VALID,0,VALID,21.5766,VALID,37,VALID,0,
2009-12-11, 03:53:04,VALID,999.02,VALID,0,VALID,93.4171,VALID,0,VALID,21.458,VALID,37,VALID,0,
2009-12-11, 03:54:04,VALID,999.039,VALID,0,VALID,93.4247,VALID,0,VALID,21.4206,VALID,35,VALID,0,
2009-12-11, 03:55:04,VALID,999.096,VALID,0,VALID,93.5239,VALID,0,VALID,21.4385,VALID,35,VALID,0,